Retour au catalogue

STARLINK-5204

ActifCommunicationsVLEO
NORAD 54101·PAYLOAD·🇺🇸 United States

Lancé Oct 20, 2022 depuis Cape Canaveral Space Force Station

Loading…

Prochains Passages (prochaines 24 heures)

TLE

FraisSource: CelesTrak SupGP

Époque: Sep 15, 2026, 01:51 UTC

1 54101C 22136BC  26258.07756944 -.00001236  00000+0 -39759-4 0  2588
2 54101  53.1588 176.0857 0001390  85.2330 146.1142 15.31703256    14

Suivez STARLINK-5204 en temps réel avec AllMySat

Download on the App Store